CARTOSAT-2B (36795 NORAD) Tracking and Keplerian Element Data

This shows tracking and keplerian element data for the satellite.

Feedback or suggestion? Click here.




ElementValue
Catalog36795
NameCARTOSAT-2B
Epoch Orbit78635
Epoch Day35.31011964
Epoch Year2025
RAAN93.6058
Inclination97.829
Eccentricity0.0011912
Argument of Perigee11.3027
Mean Anonmoly348.845
Mean Motion14.78786842
Decay Rate1.72E-05
L11 36795U 10035A 25035.31011964 .00001720 00000+0 24061-3 0 9994
L22 36795 97.8290 93.6058 0011912 11.3027 348.8450 14.78786842786352



Live tracking and technical data element details for CARTOSAT-2B (NORAD 36795). CARTOSAT-2B can be tracked NOW for your location showing map with azimuth and elevation plus other details from your city location.







IsCatalogInMostPopularTable: catalog: 36795, numindb: 394
Update: records affected: 1



GetName: 36795 CARTOSAT-2B

Hit Count: updated at: Thu, 22 May 2025 04:12:27 GMT